Regional Weather Roundup
Issued by NWS

Home | Current Version | Previous Version | Text Only | Print | Product List | Glossary Off
Versions: 1 2 3 4 5 6 7 8 9 10 11 12 13 14 15 16 17 18 19 20 21 22 23 24 25 26 27 28 29 30 31 32 33 34 35 36 37 38 39 40 41 42 43 44 45 46 47 48 49 50

000
ASUS43 KFSD 301002
RWRSD

WEATHER ROUNDUP FOR SOUTH DAKOTA
NATIONAL WEATHER SERVICE SIOUX FALLS SD
500 AM CDT SAT MAY 30 2015

NOTE: "FAIR" INDICATES FEW OR NO CLOUDS BELOW 12,000 FEET WITH NO
SIGNIFICANT WEATHER AND/OR OBSTRUCTIONS TO VISIBILITY.


SDZ001>005-009-010-012>017-301100-
NORTHWEST AND NORTH CENTRAL SOUTH DAKOTA

CITY           SKY/WX    TMP DP  RH WIND       PRES   REMARKS
BUFFALO          N/A     37  33  85 SE8       30.22F
FAITH            N/A     40  32  73 E6        30.30S
MOBRIDGE       CLEAR     40  36  86 CALM      30.31R
$$

SDZ012>016-024>037-041>051-057-063-072>074-301100-
SOUTHWEST AND SOUTH CENTRAL SOUTH DAKOTA

CITY           SKY/WX    TMP DP  RH WIND       PRES   REMARKS
RAPID CTY ARPT CLEAR     35  34  96 CALM      30.30S
PIERRE         CLEAR     37  34  89 NE6       30.30R
CUSTER         MOCLDY    36  33  89 CALM      30.28R FOG
ELLSWORTH AFB  CLEAR     40  37  88 SE2       30.29S
PHILIP         PTCLDY    35  33  92 W5        30.31R
PINE RIDGE     CLEAR     31  29  92 E3        30.31R
WINNER         FAIR      39  35  86 CALM      30.29R
$$

SDZ004>011-016>023-039-040-301100-
NORTHEAST SOUTH DAKOTA

CITY           SKY/WX    TMP DP  RH WIND       PRES   REMARKS
ABERDEEN       CLEAR     40  33  76 N14       30.32R
WATERTOWN      PTCLDY    38  32  79 N15       30.25R
BROOKINGS      PTCLDY    41  34  75 N12       30.24R
SISSETON         N/A     38  32  79 N16       30.29R
$$

SDZ017-020-022-023-036>040-048>070-301100-
SOUTHEAST SOUTH DAKOTA

CITY           SKY/WX    TMP DP  RH WIND       PRES   REMARKS
SIOUX FALLS    MOCLDY    45  39  79 N10       30.20R
HURON          PTCLDY    39  36  89 N7        30.28R
CHAMBERLAIN    CLEAR     41  37  84 N7        30.29S
MITCHELL       CLEAR     41  38  89 NW10      30.27R
YANKTON        MOCLDY    46  39  76 NW15      30.21R
$$

ABBREVIATIONS USED IN REMARKS
   TC - TEMPERATURE IN CELSIUS
  WCI - WIND CHILL INDEX
   HX - HEAT INDEX
  VSB - VISIBILITY




USA.gov is the U.S. government's official web portal to all federal, state and local government web resources and services.